SCP
-0 -0 -0 -0 -0 -0 -0 -0 -0 -0 -0 -0 -0 -0 -0 -0 -0 -0 -0 -0 -0 -0 -0 -0 -0 -0 -0 -0 -0 -0 -0 -0 -0 -0 -0 -0 0 0 0 0 0 0 0
-1 -0 -0 -0 -0 -0 -0 -0 -0 -0 -0 -0 -0 -0 -0 -0 -0 -0 -0 -0 -0 -0 -0 -0 -0 -0 -0 -0 -0 -0 -0 -0 0 -0 -0 -0 -0 0 0 0 0 0 0
-0 -0 -0 -0 -0 0 -0 -0 -0 -0 0 -0 -0 -0 -0 -0 -0 -0 -0 -0 -0 -0 -0 -0 -0 -0 -0 -0 -0 -0 -0 -0 0 -0 -0 0 -0 0 0 0 0 0 0
-0 -0 -0 -0 -0 -0 -0 -0 -0 -0 0 0 0 0 -0 -0 -0 -0 -0 -0 -0 -0 -0 -0 -0 -0 -0 -0 -0 -0 0 0 -0 -0 0 0 -0 0 0 0 0 0 0
0 -0 -0 -0 -0 -0 0 0 0 -0 -0 0 0 0 0 0 0 0 0 0 -0 -0 -0 -0 -0 -0 -0 -0 -0 0 0 0 -0 -0 0 0 0 0 0 0 0 0 0
0 -0 -0 -0 -0 0 0 0 0 0 0 0 -0 -0 0 0 0 0 0 0 0 -0 -0 -0 -0 0 0 0 0 0 0 0 -0 0 0 0 0 0 0 0 0 0 0
0 -0 0 0 0 0 0 0 0 0 0 0 0 0 0 0 0 0 0 0 0 0 0 -0 -0 0 0 0 0 0 0 -0 -0 -0 0 0 0 0 0 0 0 0 0
0 0 0 0 0 0 0 0 0 0 0 0 0 0 0 0 0 0 0 0 0 0 0 0 0 0 0 0 0 0 0 -0 0 0 0 0 0 0 0 0 0 0 0
0 0 0 0 0 0 0 0 0 0 0 0 0 0 0 0 0 0 0 0 0 0 0 0 0 0 0 0 0 0 0 -0 -0 0 0 0 0 0 0 0 0 0 0
0 0 0 0 0 0 0 0 0 0 0 0 0 0 0 0 0 0 0 0 0 0 0 0 0 0 0 0 0 0 0 0 0 0 0 0 0 0 0 0 0 0 0
0 0 0 0 0 0 0 1 0 0 0 1 0 0 0 0 0 0 0 0 0 0 0 0 0 0 0 0 0 0 0 0 0 0 0 0 0 0 0 0 0 0 0
0 0 0 0 1 0 0 1 1 1 0 0 0 0 0 0 0 0 0 1 1 1 1 0 0 0 0 0 0 0 0 0 0 0 0 0 0 0 0 0 0 0 0
0 0 0 0 0 0 0 1 0 1 1 1 0 0 0 0 0 0 0 0 1 1 0 0 0 0 0 0 0 0 0 0 0 0 0 0 0 0 0 0 0 0 0
0 0 0 0 0 0 0 0 0 0 0 1 1 1 1 1 0 0 0 0 0 0 0 0 0 0 0 0 0 0 0 0 0 0 0 0 0 0 0 0 0 0 0
0 0 0 0 0 0 0 0 0 0 0 0 1 3 2 1 1 2 0 0 0 0 0 0 0 0 0 0 0 0 0 0 0 0 1 0 0 0 0 0 0 0 0
0 0 0 0 0 0 0 1 1 1 0 0 0 1 2 2 2 1 1 0 0 0 0 0 0 0 0 0 0 0 0 0 0 0 1 0 0 0 0 0 0 0 0
0 0 0 0 0 0 0 0 0 1 0 0 0 1 2 3 2 1 1 1 1 0 0 0 0 0 0 0 0 0 0 0 0 0 1 1 0 0 0 0 0 0 0
0 0 0 0 0 0 0 0 0 0 0 0 0 0 2 4 4 3 1 1 1 1 1 0 0 0 0 0 0 0 0 0 0 0 0 1 1 0 0 0 0 0 0
0 0 0 0 0 0 0 0 0 0 0 0 0 0 1 3 2 4 3 2 2 1 1 1 0 0 0 0 0 0 0 0 0 0 0 2 1 0 0 0 0 0 0
0 0 0 0 0 0 0 0 0 0 0 0 0 0 1 1 4 6 4 3 2 2 1 1 2 1 0 0 0 0 0 0 0 0 3 2 2 1 0 0 0 0 0
0 0 0 0 0 0 0 0 0 0 0 0 0 2 2 2 2 3 3 3 3 2 2 2 2 2 1 1 0 0 1 2 3 4 3 2 1 0 0 0 0 0 0
0 0 0 0 0 0 0 0 0 0 0 1 0 2 2 4 4 5 4 3 3 2 2 2 3 2 2 0 1 1 2 2 1 1 1 1 0 0 0 0 0 0 0
0 0 0 0 0 0 0 0 0 0 1 0 1 1 2 1 4 5 4 3 3 3 2 3 3 3 1 1 1 0 1 1 1 0 0 0 0 0 0 0 0 0 0
0 0 0 0 0 0 0 0 0 0 0 0 1 1 2 2 4 5 4 3 2 3 3 3 2 2 1 1 2 1 -0 1 1 0 0 0 0 0 0 0 0 0 0
0 0 0 0 0 0 0 0 0 0 0 0 0 2 3 3 1 4 4 3 2 2 2 2 2 2 1 1 1 1 1 0 0 0 0 0 0 0 0 0 0 0 0
0 0 0 0 0 0 0 0 0 0 0 0 0 0 1 2 1 2 1 4 4 2 3 2 2 2 1 0 0 1 2 2 2 1 0 0 0 0 0 0 0 0 0
Wind_Speed_500mb
14 18 19 16 16 14 12 14 21 22 20 21 29 35 36 34 32 30 29 27 25 24 25 25 25 25 23 22 21 19 19 17 21 21 22 25 29 33 35 32 19 36 39
20 19 19 19 16 10 10 14 23 26 22 22 26 32 34 33 31 30 27 24 22 21 20 21 20 20 20 19 18 19 19 20 18 22 20 23 29 31 32 32 33 35 37
20 21 19 17 15 13 10 16 24 28 23 20 27 31 32 32 30 29 27 23 20 18 18 17 17 16 16 15 14 12 14 18 23 24 21 18 23 29 30 33 34 34 36
20 23 20 16 11 11 12 16 23 27 23 21 26 31 32 31 30 29 26 23 19 19 17 15 14 12 11 10 9 6 8 14 24 21 21 10 16 27 27 30 35 36 36
20 22 18 16 13 11 13 16 21 25 23 21 24 28 31 32 31 30 27 23 19 18 16 14 12 11 9 6 4 2 5 10 16 16 16 9 4 23 26 33 31 29 27
17 14 18 17 14 12 10 14 18 22 22 22 23 25 28 31 31 31 30 26 22 19 17 15 13 12 9 6 3 2 5 11 5 6 5 3 6 17 21 19 22 28 30
18 10 14 12 12 11 11 12 15 20 22 23 25 24 26 29 31 32 32 30 27 23 20 18 16 14 12 10 8 6 7 8 8 13 9 11 15 13 16 18 23 28 30
14 12 4 10 9 9 10 12 14 19 24 26 27 28 28 29 32 34 34 33 31 28 24 22 20 18 15 13 11 10 7 6 6 5 5 18 19 10 12 16 21 25 28
12 12 4 1 6 10 11 13 15 17 21 26 30 32 34 34 34 36 37 37 34 31 28 26 24 21 18 16 16 14 9 3 8 4 12 14 17 10 9 13 18 22 25
9 7 5 8 1 5 10 16 18 20 22 24 28 33 36 38 39 40 40 41 40 35 32 30 28 24 22 20 20 17 12 6 4 11 19 23 26 14 7 10 13 17 20
2 5 4 2 7 6 9 21 21 26 26 27 29 32 35 39 40 46 46 44 43 41 37 34 33 29 25 25 23 21 17 9 16 10 23 20 24 14 7 7 9 12 16
8 4 5 4 7 9 13 20 21 18 25 30 32 34 35 32 31 32 36 46 47 47 43 40 38 34 30 23 25 21 24 13 16 14 23 23 27 15 7 6 7 10 12
8 7 12 9 12 17 17 19 19 20 22 22 26 30 29 28 29 34 33 46 51 54 50 48 45 42 33 24 22 19 16 17 18 16 28 26 26 17 10 6 7 8 11
11 11 11 13 16 14 22 26 25 26 27 28 29 33 34 33 34 34 33 35 34 40 45 38 32 34 32 31 32 27 25 22 18 17 25 26 28 22 14 9 9 7 11
17 18 17 18 18 25 27 26 30 32 31 34 31 37 40 38 39 40 36 38 37 34 41 38 41 38 33 35 32 31 27 25 23 20 26 25 28 26 19 12 10 10 13
22 22 24 29 29 28 30 31 34 34 33 37 38 39 42 43 42 43 46 45 40 40 38 41 39 40 39 35 34 32 29 27 26 22 32 35 29 32 24 15 12 13 16
24 27 35 32 26 38 43 41 34 40 39 41 43 41 41 47 46 41 40 44 47 43 43 42 40 41 39 35 35 32 31 30 28 27 25 27 28 34 26 19 15 15 13
18 19 26 31 35 41 46 52 50 40 45 47 47 44 47 57 56 49 43 46 45 48 44 42 42 42 40 38 36 33 33 29 29 28 25 31 28 25 30 25 19 17 15
10 16 21 26 34 39 41 45 49 51 48 49 52 50 47 47 47 54 53 42 50 49 44 44 43 44 43 40 38 35 32 29 29 27 28 34 32 33 29 27 24 22 21
5 12 17 21 27 28 27 30 35 44 48 53 55 58 55 51 53 58 59 47 46 54 49 44 47 45 44 42 39 38 32 29 29 28 36 32 31 31 33 31 26 26 29
3 8 13 21 27 29 30 27 27 31 43 55 58 60 56 57 53 54 55 49 45 48 63 57 49 51 42 43 39 37 34 29 25 28 32 32 33 37 30 30 26 34 37
7 7 11 17 23 29 32 31 30 31 39 36 51 58 68 61 53 59 61 60 47 45 50 62 57 55 51 51 52 47 30 23 51 36 26 30 37 43 34 33 31 39 36
12 10 11 16 22 25 35 32 37 36 26 35 44 49 55 57 64 62 64 64 52 48 47 51 66 63 60 68 60 54 40 31 39 45 43 40 43 42 43 35 39 40 29
17 15 17 20 24 26 34 35 43 35 31 34 39 43 45 58 69 65 68 62 57 48 52 53 52 55 61 74 60 66 57 30 27 28 41 48 46 43 42 43 41 37 22
26 25 28 30 29 31 33 37 38 35 36 34 34 39 47 53 64 65 58 60 55 51 52 48 48 53 52 53 65 56 71 50 53 44 59 48 51 44 39 35 30 22 10
32 27 34 39 36 36 37 38 42 43 44 49 44 41 38 45 62 47 50 64 62 57 56 50 48 47 52 53 42 50 56 66 56 31 35 57 47 37 33 32 27 18 10
Wind_Direction_500mb
148 157 156 153 155 162 178 190 195 183 174 166 170 164 162 161 161 161 156 150 144 136 127 125 119 113 110 104 99 93 88 79 65 55 52 46 48 44 45 59 46 29 33
148 163 158 157 153 157 168 179 195 187 183 175 175 171 168 168 170 170 168 165 160 153 141 135 127 119 111 105 101 88 74 64 53 43 54 35 45 41 40 40 36 29 32
147 160 163 159 152 145 143 171 189 186 186 186 180 177 175 176 178 179 176 174 174 172 161 149 141 128 116 108 105 89 68 55 48 61 61 79 17 34 33 33 33 32 32
148 149 164 155 148 133 133 163 180 184 190 192 186 183 181 183 186 187 185 183 183 178 180 169 158 147 130 115 109 97 60 51 60 70 76 87 346 24 31 32 30 28 26
134 140 159 154 153 146 138 150 178 187 195 200 194 189 188 190 194 195 195 193 194 192 199 196 183 178 169 152 124 84 42 36 60 75 86 61 40 9 26 28 28 34 29
124 151 157 160 162 157 146 154 178 195 203 208 204 199 198 200 203 206 207 208 209 216 217 218 212 204 211 214 235 325 357 27 62 66 112 324 215 353 31 31 30 28 28
124 165 171 169 173 169 167 166 180 200 213 217 214 214 212 212 215 216 216 220 222 225 233 228 227 226 232 244 266 298 336 23 35 334 333 243 304 350 19 22 32 30 30
130 135 177 183 199 199 195 190 193 201 212 222 224 224 224 225 224 225 225 226 228 231 233 231 233 240 247 258 271 286 312 8 113 329 227 251 300 334 12 22 31 32 31
118 134 97 45 240 233 233 227 216 216 218 220 225 230 231 230 232 232 231 231 231 233 233 232 235 242 250 261 271 280 295 340 117 222 239 258 295 315 359 19 29 29 34
131 127 157 147 350 282 266 252 240 234 230 232 232 230 230 234 236 237 237 234 233 233 234 233 237 240 252 260 271 277 284 285 140 246 226 268 284 289 342 8 23 25 31
286 223 193 211 195 247 242 279 286 255 247 243 240 238 236 235 239 239 238 239 235 234 234 233 234 241 251 264 271 276 274 275 260 255 238 254 285 271 313 350 9 14 22
338 310 11 137 255 256 243 269 282 266 265 251 246 246 240 234 228 235 234 239 237 233 235 234 234 241 248 257 285 290 273 253 255 243 246 261 279 262 282 319 338 355 6
358 328 295 347 277 253 252 250 254 252 253 254 242 234 239 226 230 234 226 241 239 236 235 235 238 242 246 243 242 266 263 251 249 246 237 258 269 255 261 279 307 335 344
314 316 317 309 281 261 259 255 258 249 249 249 246 251 229 233 223 225 228 232 235 227 236 228 237 241 239 236 232 239 243 240 244 246 237 254 267 252 249 255 284 308 326
304 301 301 290 297 272 250 263 254 252 252 251 246 252 247 231 224 226 225 228 233 234 231 231 229 236 234 232 236 238 236 237 233 230 245 259 263 249 242 247 269 290 310
305 309 305 294 286 283 267 244 250 254 251 251 251 249 249 242 236 229 224 221 232 234 233 234 232 231 232 237 238 232 236 233 236 231 251 260 255 250 236 239 261 288 297
306 314 304 315 308 283 272 264 256 258 250 253 250 243 242 249 236 231 235 237 229 228 235 231 232 232 230 233 233 237 233 235 231 231 240 247 248 237 229 235 254 269 280
316 332 323 309 300 293 288 274 258 251 256 250 250 247 242 243 245 233 231 235 237 231 229 231 229 229 232 231 233 235 236 233 236 229 227 230 241 230 217 235 253 259 252
350 347 340 332 317 309 302 290 272 258 251 249 248 247 241 238 245 241 235 236 228 232 228 229 228 227 230 231 232 232 230 231 229 236 231 223 231 222 218 221 221 248 232
15 7 349 348 341 334 331 318 300 270 253 252 248 246 247 241 241 256 240 237 233 228 232 224 226 228 229 232 230 230 224 228 236 231 222 220 236 216 204 226 222 231 238
318 7 349 348 354 357 355 347 317 282 265 255 250 248 247 244 238 254 239 238 236 234 227 215 226 226 231 232 228 228 212 223 225 213 217 219 213 204 224 212 231 236 241
277 320 341 338 339 349 355 352 337 316 273 266 254 251 253 235 238 235 244 243 234 233 235 222 218 221 219 235 225 222 197 214 233 229 214 208 210 208 203 215 240 228 238
275 298 325 336 332 339 326 337 339 341 324 274 261 257 252 255 235 238 240 239 232 230 233 237 225 223 221 224 225 232 209 218 195 214 215 202 205 205 205 231 232 228 236
284 305 317 322 328 328 329 329 319 340 325 304 288 275 262 249 236 231 241 245 234 228 237 232 235 226 231 236 224 225 243 275 197 174 196 199 209 212 211 217 218 229 233
282 294 310 311 314 318 320 322 323 310 313 316 297 285 269 254 254 205 234 244 242 233 232 229 232 234 230 236 237 238 229 230 253 192 170 183 203 205 211 212 215 220 228
265 292 300 305 305 312 313 314 314 311 306 309 306 284 286 259 259 268 244 242 240 235 228 230 225 233 228 229 230 249 231 232 239 240 175 185 186 192 201 199 209 216 204
Wind_Speed_850mb
14 18 19 16 16 14 12 14 21 22 20 21 29 35 36 34 32 30 29 27 25 24 25 25 25 25 23 22 21 19 19 17 21 21 22 25 29 33 35 32 19 36 39
20 19 19 19 16 10 10 14 23 26 22 22 26 32 34 33 31 30 27 24 22 21 20 21 20 20 20 19 18 19 19 20 18 22 20 23 29 31 32 32 33 35 37
20 21 19 17 15 13 10 16 24 28 23 20 27 31 32 32 30 29 27 23 20 18 18 17 17 16 16 15 14 12 14 18 23 24 21 18 23 29 30 33 34 34 36
20 23 20 16 11 11 12 16 23 27 23 21 26 31 32 31 30 29 26 23 19 19 17 15 14 12 11 10 9 6 8 14 24 21 21 10 16 27 27 30 35 36 36
20 22 18 16 13 11 13 16 21 25 23 21 24 28 31 32 31 30 27 23 19 18 16 14 12 11 9 6 4 2 5 10 16 16 16 9 4 23 26 33 31 29 27
17 14 18 17 14 12 10 14 18 22 22 22 23 25 28 31 31 31 30 26 22 19 17 15 13 12 9 6 3 2 5 11 5 6 5 3 6 17 21 19 22 28 30
18 10 14 12 12 11 11 12 15 20 22 23 25 24 26 29 31 32 32 30 27 23 20 18 16 14 12 10 8 6 7 8 8 13 9 11 15 13 16 18 23 28 30
14 12 4 10 9 9 10 12 14 19 24 26 27 28 28 29 32 34 34 33 31 28 24 22 20 18 15 13 11 10 7 6 6 5 5 18 19 10 12 16 21 25 28
12 12 4 1 6 10 11 13 15 17 21 26 30 32 34 34 34 36 37 37 34 31 28 26 24 21 18 16 16 14 9 3 8 4 12 14 17 10 9 13 18 22 25
9 7 5 8 1 5 10 16 18 20 22 24 28 33 36 38 39 40 40 41 40 35 32 30 28 24 22 20 20 17 12 6 4 11 19 23 26 14 7 10 13 17 20
2 5 4 2 7 6 9 21 21 26 26 27 29 32 35 39 40 46 46 44 43 41 37 34 33 29 25 25 23 21 17 9 16 10 23 20 24 14 7 7 9 12 16
8 4 5 4 7 9 13 20 21 18 25 30 32 34 35 32 31 32 36 46 47 47 43 40 38 34 30 23 25 21 24 13 16 14 23 23 27 15 7 6 7 10 12
8 7 12 9 12 17 17 19 19 20 22 22 26 30 29 28 29 34 33 46 51 54 50 48 45 42 33 24 22 19 16 17 18 16 28 26 26 17 10 6 7 8 11
11 11 11 13 16 14 22 26 25 26 27 28 29 33 34 33 34 34 33 35 34 40 45 38 32 34 32 31 32 27 25 22 18 17 25 26 28 22 14 9 9 7 11
17 18 17 18 18 25 27 26 30 32 31 34 31 37 40 38 39 40 36 38 37 34 41 38 41 38 33 35 32 31 27 25 23 20 26 25 28 26 19 12 10 10 13
22 22 24 29 29 28 30 31 34 34 33 37 38 39 42 43 42 43 46 45 40 40 38 41 39 40 39 35 34 32 29 27 26 22 32 35 29 32 24 15 12 13 16
24 27 35 32 26 38 43 41 34 40 39 41 43 41 41 47 46 41 40 44 47 43 43 42 40 41 39 35 35 32 31 30 28 27 25 27 28 34 26 19 15 15 13
18 19 26 31 35 41 46 52 50 40 45 47 47 44 47 57 56 49 43 46 45 48 44 42 42 42 40 38 36 33 33 29 29 28 25 31 28 25 30 25 19 17 15
10 16 21 26 34 39 41 45 49 51 48 49 52 50 47 47 47 54 53 42 50 49 44 44 43 44 43 40 38 35 32 29 29 27 28 34 32 33 29 27 24 22 21
5 12 17 21 27 28 27 30 35 44 48 53 55 58 55 51 53 58 59 47 46 54 49 44 47 45 44 42 39 38 32 29 29 28 36 32 31 31 33 31 26 26 29
3 8 13 21 27 29 30 27 27 31 43 55 58 60 56 57 53 54 55 49 45 48 63 57 49 51 42 43 39 37 34 29 25 28 32 32 33 37 30 30 26 34 37
7 7 11 17 23 29 32 31 30 31 39 36 51 58 68 61 53 59 61 60 47 45 50 62 57 55 51 51 52 47 30 23 51 36 26 30 37 43 34 33 31 39 36
12 10 11 16 22 25 35 32 37 36 26 35 44 49 55 57 64 62 64 64 52 48 47 51 66 63 60 68 60 54 40 31 39 45 43 40 43 42 43 35 39 40 29
17 15 17 20 24 26 34 35 43 35 31 34 39 43 45 58 69 65 68 62 57 48 52 53 52 55 61 74 60 66 57 30 27 28 41 48 46 43 42 43 41 37 22
26 25 28 30 29 31 33 37 38 35 36 34 34 39 47 53 64 65 58 60 55 51 52 48 48 53 52 53 65 56 71 50 53 44 59 48 51 44 39 35 30 22 10
32 27 34 39 36 36 37 38 42 43 44 49 44 41 38 45 62 47 50 64 62 57 56 50 48 47 52 53 42 50 56 66 56 31 35 57 47 37 33 32 27 18 10
Wind_Direction_850mb
148 157 156 153 155 162 178 190 195 183 174 166 170 164 162 161 161 161 156 150 144 136 127 125 119 113 110 104 99 93 88 79 65 55 52 46 48 44 45 59 46 29 33
148 163 158 157 153 157 168 179 195 187 183 175 175 171 168 168 170 170 168 165 160 153 141 135 127 119 111 105 101 88 74 64 53 43 54 35 45 41 40 40 36 29 32
147 160 163 159 152 145 143 171 189 186 186 186 180 177 175 176 178 179 176 174 174 172 161 149 141 128 116 108 105 89 68 55 48 61 61 79 17 34 33 33 33 32 32
148 149 164 155 148 133 133 163 180 184 190 192 186 183 181 183 186 187 185 183 183 178 180 169 158 147 130 115 109 97 60 51 60 70 76 87 346 24 31 32 30 28 26
134 140 159 154 153 146 138 150 178 187 195 200 194 189 188 190 194 195 195 193 194 192 199 196 183 178 169 152 124 84 42 36 60 75 86 61 40 9 26 28 28 34 29
124 151 157 160 162 157 146 154 178 195 203 208 204 199 198 200 203 206 207 208 209 216 217 218 212 204 211 214 235 325 357 27 62 66 112 324 215 353 31 31 30 28 28
124 165 171 169 173 169 167 166 180 200 213 217 214 214 212 212 215 216 216 220 222 225 233 228 227 226 232 244 266 298 336 23 35 334 333 243 304 350 19 22 32 30 30
130 135 177 183 199 199 195 190 193 201 212 222 224 224 224 225 224 225 225 226 228 231 233 231 233 240 247 258 271 286 312 8 113 329 227 251 300 334 12 22 31 32 31
118 134 97 45 240 233 233 227 216 216 218 220 225 230 231 230 232 232 231 231 231 233 233 232 235 242 250 261 271 280 295 340 117 222 239 258 295 315 359 19 29 29 34
131 127 157 147 350 282 266 252 240 234 230 232 232 230 230 234 236 237 237 234 233 233 234 233 237 240 252 260 271 277 284 285 140 246 226 268 284 289 342 8 23 25 31
286 223 193 211 195 247 242 279 286 255 247 243 240 238 236 235 239 239 238 239 235 234 234 233 234 241 251 264 271 276 274 275 260 255 238 254 285 271 313 350 9 14 22
338 310 11 137 255 256 243 269 282 266 265 251 246 246 240 234 228 235 234 239 237 233 235 234 234 241 248 257 285 290 273 253 255 243 246 261 279 262 282 319 338 355 6
358 328 295 347 277 253 252 250 254 252 253 254 242 234 239 226 230 234 226 241 239 236 235 235 238 242 246 243 242 266 263 251 249 246 237 258 269 255 261 279 307 335 344
314 316 317 309 281 261 259 255 258 249 249 249 246 251 229 233 223 225 228 232 235 227 236 228 237 241 239 236 232 239 243 240 244 246 237 254 267 252 249 255 284 308 326
304 301 301 290 297 272 250 263 254 252 252 251 246 252 247 231 224 226 225 228 233 234 231 231 229 236 234 232 236 238 236 237 233 230 245 259 263 249 242 247 269 290 310
305 309 305 294 286 283 267 244 250 254 251 251 251 249 249 242 236 229 224 221 232 234 233 234 232 231 232 237 238 232 236 233 236 231 251 260 255 250 236 239 261 288 297
306 314 304 315 308 283 272 264 256 258 250 253 250 243 242 249 236 231 235 237 229 228 235 231 232 232 230 233 233 237 233 235 231 231 240 247 248 237 229 235 254 269 280
316 332 323 309 300 293 288 274 258 251 256 250 250 247 242 243 245 233 231 235 237 231 229 231 229 229 232 231 233 235 236 233 236 229 227 230 241 230 217 235 253 259 252
350 347 340 332 317 309 302 290 272 258 251 249 248 247 241 238 245 241 235 236 228 232 228 229 228 227 230 231 232 232 230 231 229 236 231 223 231 222 218 221 221 248 232
15 7 349 348 341 334 331 318 300 270 253 252 248 246 247 241 241 256 240 237 233 228 232 224 226 228 229 232 230 230 224 228 236 231 222 220 236 216 204 226 222 231 238
318 7 349 348 354 357 355 347 317 282 265 255 250 248 247 244 238 254 239 238 236 234 227 215 226 226 231 232 228 228 212 223 225 213 217 219 213 204 224 212 231 236 241
277 320 341 338 339 349 355 352 337 316 273 266 254 251 253 235 238 235 244 243 234 233 235 222 218 221 219 235 225 222 197 214 233 229 214 208 210 208 203 215 240 228 238
275 298 325 336 332 339 326 337 339 341 324 274 261 257 252 255 235 238 240 239 232 230 233 237 225 223 221 224 225 232 209 218 195 214 215 202 205 205 205 231 232 228 236
284 305 317 322 328 328 329 329 319 340 325 304 288 275 262 249 236 231 241 245 234 228 237 232 235 226 231 236 224 225 243 275 197 174 196 199 209 212 211 217 218 229 233
282 294 310 311 314 318 320 322 323 310 313 316 297 285 269 254 254 205 234 244 242 233 232 229 232 234 230 236 237 238 229 230 253 192 170 183 203 205 211 212 215 220 228
265 292 300 305 305 312 313 314 314 311 306 309 306 284 286 259 259 268 244 242 240 235 228 230 225 233 228 229 230 249 231 232 239 240 175 185 186 192 201 199 209 216 204